カタログに戻る

LDPE-2

運用中科学GEO
NORAD 54219·PAYLOAD·🇺🇸 United States

打ち上げ Nov 1, 2022 から Cape Canaveral Space Force Station

Loading…

TLE

最新Source: Space-Track

元期: Sep 14, 2026, 14:08 UTC

1 54219U 22144A   26257.58940108  .00000051  00000-0  00000-0 0  9997
2 54219   5.8118  62.7834 0000456 323.8996 251.1602  0.98886575 12737

AllMySatでLDPE-2をリアルタイム追跡

Download on the App Store